GFSGBSN_sfc_temp_198.txt.gz
Temp
61 61 62 61 61 61 61 61 61 61 61 61 60 60 59 59 59 60 61 60 60 60 61 62 63 64 59 61 71 81 81 81 79 81 79 76 72 69 65 69 71 70 73 76 77 76 75
61 62 62 61 61 61 60 60 61 60 60 60 60 60 60 60 59 59 59 60 60 60 61 62 64 64 59 58 79 81 78 78 78 78 75 76 75 74 69 68 68 75 75 77 77 76 76
61 61 61 61 61 60 60 60 60 60 60 60 59 60 59 60 60 59 59 58 59 60 61 62 64 65 59 68 79 77 77 75 78 79 75 77 78 73 71 69 75 76 70 73 73 75 73
61 61 61 61 60 60 60 60 60 60 60 59 59 59 59 60 59 59 58 57 58 60 62 63 65 58 61 76 76 77 76 74 76 75 77 79 77 71 68 73 73 69 66 59 70 72 74
61 61 61 60 60 60 59 59 59 59 59 59 59 59 59 59 58 58 57 57 59 62 63 65 55 56 63 79 75 78 78 78 76 74 76 89 75 66 70 62 59 61 54 59 65 72 73
61 61 60 60 60 60 59 59 59 59 59 59 58 59 58 58 58 57 56 57 62 62 63 67 69 59 70 73 76 77 75 80 77 74 75 73 65 61 57 58 51 55 56 61 60 68 69
61 60 60 60 60 59 59 59 59 59 59 58 58 58 58 58 57 57 53 55 60 58 56 64 63 68 75 79 80 75 77 78 75 72 61 63 60 55 60 61 62 60 58 59 66 71 67
61 60 60 60 59 59 59 59 58 58 58 58 58 58 57 57 57 56 53 56 63 63 60 67 68 69 73 75 73 75 80 72 67 61 61 60 55 64 65 65 63 60 58 59 65 70 66
60 60 59 59 59 59 59 58 58 58 58 58 58 58 58 57 56 52 49 60 65 64 56 67 66 67 71 75 72 72 78 71 65 60 59 57 64 70 67 63 61 57 56 59 62 66 67
60 59 59 59 59 59 58 58 58 58 58 58 58 58 57 56 49 52 57 61 62 65 54 63 62 71 72 73 69 80 79 76 65 64 62 60 67 69 64 62 62 51 66 67 64 59 53
60 59 59 59 59 58 58 58 58 58 58 57 57 57 56 55 47 55 64 60 60 66 48 70 66 79 69 69 69 72 78 75 67 66 63 63 63 63 61 66 66 63 68 65 64 56 51
60 59 59 59 59 58 58 58 58 57 57 57 56 56 55 51 51 55 58 59 65 57 49 66 70 68 67 66 69 72 73 77 73 66 62 65 69 68 67 69 69 70 63 59 54 51 47
60 59 59 59 58 58 58 58 57 57 57 56 55 53 54 57 62 58 59 65 55 51 67 65 62 64 63 62 66 67 68 64 61 52 52 62 66 67 71 62 63 62 53 46 46 44 45
59 59 59 58 58 58 58 58 57 57 56 55 52 52 52 56 54 56 64 62 48 62 60 67 65 63 62 63 63 64 62 59 62 58 53 53 55 61 67 66 62 58 54 47 41 41 47
59 59 59 58 58 58 58 58 57 57 56 54 51 48 49 55 56 55 64 50 53 58 66 66 63 60 59 63 62 62 58 58 62 63 57 51 55 68 71 70 70 57 52 55 46 40 45
59 59 59 58 58 58 58 57 57 57 55 53 51 55 62 61 60 64 59 49 55 64 68 66 56 59 53 60 60 57 55 64 63 66 62 58 53 63 70 69 65 63 64 53 47 42 39
59 59 58 58 58 58 58 58 57 56 54 53 57 62 66 61 63 62 53 52 62 68 68 62 59 58 56 56 56 55 55 64 66 66 62 55 53 59 63 60 60 58 54 51 50 47 44
59 58 58 58 58 58 58 57 56 55 53 54 59 58 66 65 59 47 52 56 61 66 67 66 65 62 58 58 56 55 56 59 69 64 57 56 51 48 59 64 65 62 56 53 49 47 43
58 58 58 58 58 58 58 57 56 55 53 51 57 56 66 67 53 52 55 62 64 65 62 64 61 62 61 55 51 57 58 67 69 64 56 58 50 46 54 57 60 57 57 54 49 47 44
58 58 58 58 58 58 58 57 56 55 53 52 57 57 60 57 52 51 51 55 58 68 64 63 60 61 58 54 53 52 57 65 67 64 68 61 47 49 46 51 52 53 58 57 51 46 47
59 58 58 58 58 58 58 57 56 55 53 54 53 49 50 51 54 50 49 54 58 58 63 62 58 60 54 46 51 50 54 56 62 63 58 56 45 46 50 55 55 56 57 58 53 53 51
59 59 58 58 58 58 58 57 56 55 54 52 51 51 50 48 48 50 50 50 55 57 57 55 55 59 55 48 51 48 50 48 53 55 50 49 45 42 46 53 52 53 57 58 58 58 55
59 60 58 58 58 58 58 58 57 55 54 50 48 49 51 48 48 49 49 52 57 57 58 61 59 55 53 55 57 59 57 56 47 46 47 46 43 40 38 47 50 46 51 55 56 56 54
58 59 58 58 58 58 58 58 57 56 52 48 46 46 49 47 50 51 55 58 57 55 53 58 57 52 57 58 56 52 49 47 49 47 48 43 41 39 38 40 35 49 57 59 56 58 58
58 58 58 58 58 58 58 58 58 57 55 49 46 48 46 44 49 54 55 54 54 52 52 55 58 58 55 54 49 44 45 46 48 50 47 46 42 40 38 36 45 50 55 54 51 51 57
58 58 58 58 58 58 58 59 58 57 55 47 46 46 47 46 48 54 52 51 47 44 50 52 57 55 54 46 46 37 38 41 44 48 45 44 43 44 37 35 36 46 57 59 56 45 56
57 57 57 58 58 58 58 59 58 58 56 47 47 46 48 44 47 47 49 49 50 46 45 45 51 51 49 43 41 39 40 45 40 38 39 39 38 38 37 37 43 53 56 58 44 44 53
57 57 57 57 57 58 58 58 58 58 57 48 47 47 48 42 45 51 54 50 49 47 45 48 47 48 45 41 40 39 39 41 39 41 39 39 37 35 36 33 36 55 56 49 50 52 55
57 57 57 57 57 57 58 58 58 57 57 53 46 49 48 45 49 50 55 58 58 57 50 45 47 45 47 42 40 40 40 39 37 36 43 39 42 39 41 41 49 52 53 56 54 51 53

GFSGBSN_sfc_temp_201.txt.gz
Temp
62 62 62 62 61 61 61 61 61 61 61 61 61 60 60 60 60 60 60 60 60 61 61 62 63 64 70 77 82 87 81 82 86 89 89 87 84 82 79 81 81 76 80 81 82 81 80
62 61 61 61 61 61 61 61 61 61 61 60 61 60 60 60 60 61 60 59 59 59 61 62 64 64 75 73 88 86 85 85 89 89 87 88 86 86 81 81 80 83 81 82 82 82 81
61 62 61 61 61 61 60 60 60 60 60 60 60 60 60 60 60 59 59 58 58 58 61 62 64 68 73 80 87 87 87 87 89 91 88 89 89 86 84 81 84 83 78 80 80 81 79
61 61 61 61 61 60 60 60 60 60 60 59 59 59 59 59 59 59 58 57 58 60 62 63 65 69 74 85 86 86 88 87 88 90 90 91 90 86 84 84 82 76 76 72 79 79 80
61 61 61 61 60 60 59 59 60 59 59 59 59 59 59 59 59 58 57 57 59 62 63 65 69 72 76 84 84 88 90 88 88 88 89 91 88 81 82 79 76 75 69 70 73 79 78
61 61 61 61 60 60 59 59 59 59 59 59 59 59 58 58 58 57 57 57 63 64 66 70 72 71 82 82 86 86 88 90 87 86 85 84 82 81 79 78 66 66 68 70 70 76 77
61 61 61 60 60 60 59 59 59 59 59 59 59 59 58 58 57 57 58 67 71 70 69 77 77 76 81 87 89 86 88 88 87 84 77 77 77 73 77 75 73 71 70 69 75 80 73
61 61 60 60 60 59 59 59 59 59 59 59 59 58 58 58 57 57 57 71 75 76 73 74 74 75 79 83 81 83 89 84 80 75 76 76 72 77 76 75 73 72 70 72 76 77 75
60 60 60 59 59 59 59 59 58 58 58 58 58 58 57 57 56 56 60 70 74 78 72 75 75 76 80 84 81 83 88 81 78 73 73 71 75 77 76 74 72 74 71 71 71 75 76
60 60 59 59 59 59 59 58 58 58 58 57 58 57 57 56 55 61 67 72 73 75 70 72 74 79 80 82 80 87 89 86 78 75 73 74 78 75 74 73 75 72 77 74 71 71 68
60 59 59 59 59 59 58 58 58 58 58 57 57 57 56 55 59 65 72 71 72 76 60 76 76 87 81 81 83 81 87 85 76 75 75 73 74 73 72 76 77 75 77 74 73 71 69
60 59 59 59 59 59 58 58 58 57 57 57 56 56 55 54 56 66 69 71 76 69 58 73 77 76 77 79 80 82 84 87 84 77 76 76 80 79 79 78 79 80 77 72 69 71 65
60 59 59 59 59 58 58 58 58 57 57 56 54 53 55 60 73 68 70 76 69 64 75 71 74 77 76 75 78 79 77 76 73 68 68 74 77 79 81 75 77 76 72 65 63 64 64
60 59 59 59 58 58 58 58 57 57 56 55 52 53 55 61 65 66 75 74 61 68 70 76 75 75 74 75 74 75 73 73 74 74 70 66 67 76 77 78 76 73 74 67 55 60 65
59 59 59 58 58 58 58 58 57 57 56 53 52 58 62 68 65 65 77 66 66 69 74 73 75 72 71 74 75 73 70 69 72 75 68 67 67 77 79 82 81 71 69 75 66 62 63
59 59 59 58 58 58 58 58 57 56 55 53 62 69 73 69 69 75 74 58 68 73 74 75 70 71 68 70 72 72 69 72 71 74 75 71 64 75 79 81 77 77 78 69 69 57 56
59 59 59 58 58 58 58 58 57 56 54 53 69 75 75 73 72 76 68 67 70 76 75 73 71 70 69 68 70 68 65 71 73 74 74 74 68 72 76 75 74 73 72 70 71 68 62
59 59 58 58 58 58 58 58 56 55 53 57 74 71 77 76 73 63 69 68 62 74 75 75 74 72 70 68 68 67 66 70 74 74 70 71 70 64 71 78 76 75 72 73 68 62 64
59 59 59 58 58 58 58 57 56 54 53 62 70 71 78 78 68 68 68 71 72 73 70 72 70 71 71 67 65 67 68 73 74 73 69 72 67 61 67 73 73 70 70 69 67 67 61
59 59 59 59 58 58 58 57 56 55 53 62 71 69 73 70 66 68 67 67 69 73 71 71 69 71 70 66 67 65 67 71 73 72 66 70 66 63 61 65 66 65 68 70 69 63 65
60 60 59 59 59 59 58 57 56 55 53 65 64 62 62 67 67 65 66 65 66 66 71 71 68 68 67 64 64 63 66 68 71 68 69 70 60 62 66 66 66 65 65 67 65 68 62
58 59 58 59 59 59 58 58 57 55 54 62 64 64 63 61 61 65 59 63 64 66 67 66 66 67 67 64 65 62 65 64 65 68 66 67 60 59 59 66 65 61 66 67 67 67 66
58 58 59 59 59 59 58 58 57 55 57 62 59 61 63 53 62 65 63 63 63 65 67 68 66 66 65 66 68 71 71 69 68 64 63 61 61 57 54 58 61 58 63 63 65 66 64
58 58 59 59 59 59 59 58 57 56 54 60 56 58 64 61 63 62 63 65 64 63 63 67 68 66 67 70 70 69 68 66 65 62 65 58 57 58 56 57 48 61 67 66 63 62 64
58 58 58 58 59 59 59 59 58 57 55 60 57 59 61 60 60 62 63 63 63 62 63 64 67 66 67 67 65 60 62 61 61 62 61 62 59 57 53 53 58 60 62 61 59 60 62
58 58 58 58 58 58 59 59 59 57 55 59 57 55 61 62 63 62 62 61 62 61 62 64 67 67 68 65 62 52 54 54 55 58 61 60 60 59 54 49 47 55 63 67 64 55 63
58 57 57 58 58 58 59 59 59 58 56 56 59 55 60 60 63 61 62 62 61 59 61 59 62 63 64 61 57 54 55 55 52 50 51 55 55 52 53 50 56 60 65 67 52 55 64
57 57 57 57 57 58 58 58 58 58 57 56 58 56 58 58 61 60 63 61 61 61 60 60 60 61 61 56 57 55 54 56 53 54 52 52 50 52 51 47 46 62 65 55 62 65 65
57 57 57 57 57 57 58 58 58 57 57 56 59 57 56 57 61 59 64 66 67 67 64 59 61 58 62 58 56 57 55 56 51 51 57 52 56 53 53 55 63 66 62 67 69 64 65

GFSGBSN_sfc_temp_207.txt.gz
Temp
63 63 63 62 62 62 62 62 62 62 61 62 61 61 61 61 62 62 61 61 61 60 61 62 64 65 83 91 95 103 86 85 99 102 102 101 98 96 93 95 95 90 91 93 94 93 92
62 62 62 62 62 61 61 61 61 61 61 60 60 60 61 61 61 61 61 60 60 60 61 62 64 64 87 86 105 106 104 102 105 104 103 103 100 100 96 94 93 94 93 93 95 94 94
62 62 62 62 61 61 61 61 61 61 60 60 60 60 60 60 61 61 60 60 60 60 61 63 65 80 90 94 105 107 106 106 107 106 102 104 104 99 99 94 98 95 88 91 92 94 92
62 62 62 61 61 61 60 60 60 60 60 60 60 60 60 60 60 60 59 59 59 61 62 64 66 86 90 105 108 104 107 104 107 107 105 105 105 101 98 100 96 90 91 83 90 92 93
62 61 61 61 61 60 60 60 60 60 60 60 60 60 60 60 60 59 58 58 60 63 65 67 81 89 91 89 98 106 107 102 104 105 105 104 103 98 98 90 88 89 81 81 84 92 91
62 61 61 61 61 60 60 60 60 60 60 60 60 60 60 60 59 58 57 58 63 65 72 87 91 87 95 95 103 104 108 105 100 100 97 96 96 92 93 90 79 80 81 83 82 88 90
61 61 61 61 60 60 60 60 59 60 60 59 59 59 59 59 59 57 64 82 83 84 89 92 94 92 96 102 104 101 105 102 100 96 88 94 88 84 90 92 90 86 83 82 87 91 87
61 61 61 60 60 60 60 59 59 59 59 59 59 59 59 59 59 58 68 88 93 95 88 96 95 94 99 103 93 99 105 94 92 87 93 90 83 92 94 91 87 86 83 83 87 91 89
61 60 60 60 60 60 59 59 59 59 59 59 58 58 58 58 59 62 86 94 100 100 89 90 96 95 97 100 95 96 100 96 90 87 89 85 90 92 89 87 85 86 84 84 82 88 92
60 60 60 60 60 59 59 59 59 59 58 58 58 58 58 58 58 92 88 98 100 99 84 84 89 95 96 98 91 102 103 97 91 86 89 88 94 88 86 85 88 83 91 86 83 82 77
60 60 60 60 59 59 59 58 58 59 58 57 57 57 57 53 77 89 95 102 101 96 69 90 91 102 100 94 95 94 104 97 88 88 88 85 86 85 84 86 90 86 90 87 86 83 84
60 60 60 60 59 59 58 58 58 58 58 57 57 57 57 64 78 95 100 99 97 78 69 84 91 89 90 93 94 96 95 99 98 90 91 89 95 91 90 92 92 93 88 87 88 87 76
60 60 60 59 59 59 58 58 58 57 57 56 55 54 58 83 93 100 100 93 79 75 91 83 86 91 90 88 89 91 88 87 85 79 80 87 89 94 94 87 92 89 85 75 72 73 75
60 60 59 59 59 58 58 58 58 57 57 55 53 53 62 84 98 96 94 86 72 84 86 94 92 91 86 90 90 90 88 85 91 88 84 81 77 88 94 89 87 87 87 77 65 69 75
60 60 59 59 59 58 58 58 58 57 56 54 52 75 89 95 94 95 89 78 81 85 90 89 90 85 85 89 89 88 87 87 89 91 80 80 80 92 92 95 92 86 80 92 82 84 77
60 60 59 59 59 59 59 58 57 57 55 54 82 93 94 98 98 92 85 74 85 91 90 91 83 88 82 86 85 86 85 87 86 89 92 86 77 90 92 94 94 90 94 80 82 67 65
59 60 59 59 59 59 59 58 57 56 54 55 82 91 96 100 98 88 81 86 86 92 92 88 87 85 86 84 86 85 84 86 87 88 90 90 85 83 89 86 85 86 84 85 86 82 71
59 59 59 59 59 59 59 58 57 55 53 55 91 87 98 100 84 89 87 87 70 90 93 90 91 89 86 85 84 83 82 84 88 89 83 89 84 78 83 93 95 90 85 86 77 73 79
59 59 59 59 59 59 59 58 57 55 53 82 89 90 100 98 81 85 88 87 89 89 88 88 86 89 89 85 78 82 83 87 86 86 82 87 80 74 78 88 92 85 87 88 87 85 74
59 59 59 59 59 59 59 58 57 55 55 72 91 84 91 93 93 89 84 85 83 88 87 88 87 89 86 83 86 81 82 85 85 86 73 78 82 77 72 77 83 78 82 84 84 76 76
59 59 59 59 59 59 59 58 57 56 56 73 93 89 89 84 87 88 88 86 83 81 87 88 83 84 82 78 81 80 83 84 87 70 78 84 75 79 80 82 82 80 79 81 78 79 73
59 59 59 59 59 59 59 58 57 56 55 89 82 82 93 90 84 85 73 82 82 83 83 83 81 82 82 78 80 77 80 81 79 84 81 85 73 75 73 79 80 76 79 80 80 80 79
59 59 59 59 59 59 59 59 58 56 62 86 86 91 85 71 84 84 86 82 82 83 83 85 82 81 80 81 84 86 88 88 86 80 78 77 76 72 67 77 75 69 77 78 79 80 79
59 59 59 59 59 59 59 59 58 57 56 83 80 80 83 84 84 83 82 82 80 80 79 84 83 80 81 88 88 89 88 87 84 83 86 76 73 72 68 71 59 76 82 79 76 78 81
58 59 59 59 59 59 59 59 59 57 56 79 81 79 81 82 84 80 80 80 80 79 79 80 83 83 87 83 77 74 76 74 77 80 81 83 75 69 65 67 72 76 75 74 71 72 80
58 58 58 59 59 59 59 59 59 58 56 76 80 80 81 78 81 81 80 79 79 80 79 80 84 87 86 81 78 64 67 72 69 72 80 81 77 69 68 60 56 70 75 79 79 65 77
57 58 58 58 59 59 59 59 59 59 57 66 80 79 79 78 83 81 80 79 82 80 79 80 80 80 84 77 73 71 71 73 65 67 67 69 67 66 67 64 69 74 76 79 61 64 75
57 57 57 58 58 58 59 59 59 59 58 63 81 79 74 78 83 81 82 79 82 81 76 78 78 79 79 71 74 75 71 75 69 72 68 66 64 66 68 61 57 75 74 64 71 77 77
57 57 57 57 58 58 59 59 59 58 58 58 79 82 79 73 80 82 84 84 82 82 81 81 78 75 79 75 77 75 71 73 68 64 72 63 69 65 67 68 75 77 74 79 80 76 76

GFSGBSN_sfc_temp_210.txt.gz
Temp
63 63 63 62 62 62 62 62 62 62 62 62 61 61 61 61 62 62 62 62 61 61 61 62 63 65 80 88 93 101 85 87 99 101 100 101 98 98 92 95 96 90 92 94 95 95 94
63 63 62 62 62 62 61 61 62 61 61 60 60 60 61 61 61 61 61 61 61 61 62 63 65 64 82 83 107 108 107 104 105 103 102 104 100 100 96 95 93 95 93 94 96 95 96
62 62 62 62 62 61 61 61 61 61 61 60 60 60 60 61 61 61 61 60 60 61 62 63 65 78 87 92 108 110 108 106 107 106 101 106 105 99 99 94 99 96 89 92 93 94 93
62 62 62 62 61 61 61 61 61 60 60 60 60 60 61 60 61 61 60 59 60 61 63 64 66 82 85 107 110 106 108 106 108 109 106 107 106 100 96 100 96 90 91 80 90 92 94
62 62 62 62 61 61 60 60 60 60 60 60 60 60 60 60 60 60 59 59 60 63 65 67 78 85 89 93 99 106 108 102 105 106 106 107 102 96 97 90 85 89 79 80 85 93 91
62 62 61 61 61 60 60 60 60 60 60 60 60 60 60 60 60 59 58 58 67 64 72 86 89 85 93 95 103 105 109 107 101 101 98 97 95 89 91 88 74 78 81 84 82 89 90
62 62 61 61 60 60 60 60 60 60 60 60 60 59 59 60 59 58 63 80 81 80 87 89 92 92 98 105 107 102 106 102 101 96 87 94 86 82 89 92 90 87 84 82 87 92 87
61 61 61 60 60 60 60 59 59 59 60 60 59 59 59 59 59 59 65 84 95 98 87 93 97 99 102 104 93 99 106 93 92 85 91 89 82 91 94 93 89 86 83 82 88 91 89
61 61 60 60 60 60 59 59 59 59 59 59 58 58 58 59 59 61 80 91 104 103 88 93 98 96 98 101 95 96 100 96 91 87 88 85 90 94 91 88 85 85 83 83 83 88 90
61 60 60 60 60 59 59 59 59 59 59 58 58 58 58 58 57 87 85 97 102 103 79 86 91 96 100 99 92 105 104 97 92 86 89 89 95 91 87 85 88 81 92 89 84 81 74
60 60 60 60 59 59 59 58 58 58 58 58 58 58 57 54 68 89 99 105 105 98 65 89 92 107 101 93 96 96 105 98 87 89 89 86 88 87 84 87 91 85 92 87 86 81 81
60 60 60 60 60 59 58 58 58 58 58 58 57 57 58 63 72 87 103 103 98 76 68 85 93 90 90 93 95 97 95 100 99 91 91 89 97 93 91 93 92 93 88 87 86 83 71
60 60 60 60 59 59 58 58 58 58 57 56 56 55 58 79 92 103 103 95 77 71 92 84 86 90 89 88 90 91 88 86 83 78 80 87 89 94 95 87 92 89 83 72 69 70 65
60 60 60 59 59 58 58 58 58 57 56 55 54 53 61 77 91 100 96 84 69 85 88 95 92 90 85 90 90 89 87 84 90 89 84 80 76 89 94 89 85 86 85 74 63 65 70
60 60 59 59 59 58 58 58 58 57 56 54 52 71 84 93 90 97 88 75 78 87 93 89 91 85 85 90 89 89 87 87 91 91 79 79 80 93 93 94 92 85 80 91 80 82 76
60 59 59 59 59 58 58 58 58 57 55 54 76 90 94 101 100 94 83 70 86 94 94 93 83 88 82 86 85 86 86 90 88 91 93 86 76 91 93 94 94 89 92 78 80 65 63
60 59 59 59 59 58 59 58 58 56 55 55 76 86 98 103 101 88 78 84 91 95 94 90 88 86 86 84 87 84 85 88 90 90 92 89 83 82 90 85 84 85 82 84 85 79 68
59 59 59 59 59 59 59 58 57 55 53 55 87 83 100 103 83 87 83 90 72 92 95 93 92 91 89 88 85 85 83 84 91 91 83 89 83 75 81 92 95 92 86 86 75 70 77
59 59 59 59 59 59 59 58 57 55 54 74 83 92 101 100 79 84 90 89 91 91 91 90 89 91 92 86 79 86 87 89 90 88 79 84 80 71 76 86 91 86 88 88 86 84 73
59 59 59 59 59 59 59 58 57 56 55 68 84 84 91 93 92 87 87 86 85 92 91 92 90 91 87 84 88 82 84 88 89 87 75 81 80 75 69 74 82 78 82 85 83 74 74
59 59 59 59 59 59 59 58 57 56 56 71 88 84 93 82 86 89 90 88 85 83 90 90 86 86 85 79 82 82 86 87 89 73 83 82 73 78 80 81 82 80 79 81 78 79 72
59 59 59 59 59 59 59 58 58 56 55 82 82 82 86 88 88 87 76 84 84 87 85 84 83 87 85 79 82 79 83 82 81 85 82 86 73 76 73 80 80 77 81 81 80 80 79
59 59 59 59 59 59 59 59 58 56 61 86 85 88 85 76 87 85 85 85 84 87 86 88 86 84 82 81 87 87 88 88 87 82 80 78 75 71 65 76 77 70 78 78 80 82 79
59 59 59 59 59 59 59 59 58 57 57 73 83 81 80 80 86 84 85 86 83 83 80 87 86 82 83 91 91 90 89 87 87 85 87 77 74 72 66 71 58 77 85 81 77 79 81
58 58 59 59 59 59 59 59 59 58 57 72 84 79 79 77 86 84 83 84 84 82 81 84 87 87 90 86 78 74 76 77 80 83 83 84 76 69 64 65 72 77 76 75 72 71 79
58 58 58 58 59 59 59 60 59 58 57 72 83 81 79 77 80 83 82 82 79 81 82 83 88 90 87 81 76 65 65 73 71 75 83 82 80 70 66 59 56 70 77 81 79 64 76
58 58 58 58 58 59 59 60 60 59 57 63 79 82 80 76 85 83 79 77 84 82 80 82 82 82 87 76 72 70 70 76 68 68 70 70 69 65 66 63 69 74 76 80 60 62 76
57 58 58 58 58 59 59 59 59 59 58 62 77 84 76 75 83 84 86 80 82 82 76 79 80 81 79 72 72 73 73 74 71 73 70 67 65 65 67 61 58 76 75 65 71 77 77
56 56 57 58 58 58 59 59 59 58 58 59 76 85 84 75 80 88 88 88 85 84 81 83 80 78 80 74 76 76 71 75 71 63 74 63 70 66 66 64 74 79 76 79 78 75 76

GFSGBSN_sfc_temp_216.txt.gz
Temp
63 63 63 62 62 61 61 61 61 61 61 61 60 60 60 60 61 61 61 61 61 61 61 62 63 64 64 67 76 93 84 85 87 88 86 85 81 78 74 81 83 81 84 88 88 88 86
62 62 62 62 62 61 61 61 61 61 61 60 60 60 60 60 60 61 61 61 60 61 61 63 64 65 63 65 90 93 90 87 89 87 85 85 83 85 79 78 76 86 86 87 87 86 87
62 62 62 62 61 61 61 61 61 60 60 60 60 60 60 60 61 61 61 60 60 61 62 63 65 69 64 74 89 90 85 86 86 88 83 89 87 84 80 78 85 86 79 81 83 85 83
62 62 61 61 61 61 60 60 60 60 60 60 60 60 60 60 60 60 60 59 60 61 63 64 66 63 64 84 84 87 87 89 91 88 88 91 89 82 77 81 82 78 77 68 79 84 85
62 61 61 61 61 60 60 60 60 60 60 60 60 60 60 60 60 59 58 59 60 63 65 65 58 59 66 87 84 88 85 88 86 88 90 101 84 75 79 70 65 70 64 68 75 83 82
61 61 61 61 61 60 60 60 60 60 59 60 60 60 60 60 59 58 57 59 60 61 67 73 76 63 73 81 84 88 90 89 87 83 85 80 72 68 66 63 55 63 67 73 70 78 79
61 61 61 61 60 60 60 60 60 60 59 60 59 60 59 59 58 57 54 60 64 61 61 67 69 73 82 85 91 85 91 85 84 78 69 72 66 62 68 68 71 71 70 69 75 81 77
61 61 61 60 60 60 60 59 59 59 59 59 59 58 58 58 58 57 51 60 69 72 64 74 78 78 84 84 82 87 88 78 75 69 70 68 62 75 75 77 74 71 69 68 75 81 74
61 60 60 60 60 60 59 59 59 59 59 59 58 58 58 58 57 51 54 65 74 78 62 76 75 76 80 84 82 82 86 80 73 68 70 64 73 81 78 74 72 65 63 69 70 75 74
61 60 60 60 60 59 59 59 59 59 59 58 58 58 58 57 53 58 62 71 70 76 56 68 70 81 83 84 77 91 89 84 75 72 72 68 79 78 75 72 69 54 75 78 76 66 59
60 60 60 60 59 59 59 58 58 59 58 58 58 57 57 56 50 61 75 71 71 72 51 76 74 88 84 79 78 82 90 80 74 75 69 70 75 74 71 75 75 71 78 74 72 64 58
60 60 60 60 59 59 58 58 58 58 58 58 57 56 57 53 49 57 67 69 73 58 53 72 81 77 74 73 79 80 83 82 82 73 71 73 81 76 77 79 79 82 73 67 62 56 52
60 60 60 59 59 59 58 58 58 58 57 56 55 55 55 61 63 68 70 71 56 51 74 70 70 75 72 73 75 77 76 69 67 59 59 70 75 76 79 69 75 72 60 51 50 49 52
60 60 59 59 59 58 58 58 58 57 56 55 53 52 52 58 59 63 69 63 48 68 66 73 74 72 70 72 73 76 70 66 71 65 59 59 60 74 80 75 69 65 61 52 46 47 53
60 60 60 59 59 58 59 58 58 57 56 54 52 47 50 59 60 62 65 51 58 64 72 73 73 64 65 73 73 71 69 67 72 70 62 59 65 79 80 79 77 66 60 66 57 50 54
60 60 60 59 59 59 59 58 58 57 56 54 51 56 62 71 71 66 60 52 61 75 79 80 70 69 62 68 70 65 65 73 75 77 72 64 61 69 80 80 77 66 72 61 54 47 45
60 60 59 59 59 59 59 58 57 56 55 54 56 61 72 75 73 63 54 56 71 81 83 75 71 63 67 66 69 68 68 74 79 75 74 62 63 65 71 67 64 66 63 60 59 54 48
59 59 59 59 59 59 59 58 57 56 54 54 59 59 75 77 61 55 55 65 70 78 81 77 75 70 72 74 72 68 69 71 80 75 67 63 58 54 64 71 74 71 61 57 53 54 51
59 59 59 59 59 59 59 58 57 55 54 48 60 62 76 75 55 55 61 71 76 78 76 77 75 76 74 67 64 71 73 78 79 73 65 64 55 50 57 61 68 64 64 60 57 52 50
59 59 59 59 59 59 59 58 56 56 55 51 61 60 65 67 62 58 59 66 68 81 78 78 74 74 72 69 67 65 69 77 78 73 71 67 53 52 49 55 59 61 66 64 56 50 49
59 59 59 59 59 59 59 58 57 56 54 55 61 60 63 58 63 64 64 67 70 70 78 75 72 72 68 60 62 64 70 69 74 70 67 63 53 52 54 62 62 62 65 66 56 58 54
58 58 58 58 59 59 59 58 57 56 55 61 58 58 60 58 64 62 58 63 70 73 71 69 67 71 67 61 60 59 63 60 60 67 62 61 54 52 56 64 63 61 66 66 64 63 59
58 58 58 58 58 59 59 58 58 56 55 57 60 61 60 57 61 62 64 66 70 72 75 76 72 67 66 67 67 66 65 66 63 60 61 58 55 50 46 58 59 53 60 63 61 62 60
58 58 58 58 58 59 59 59 58 57 55 49 55 56 56 57 61 64 71 74 73 71 69 73 72 66 68 71 70 65 62 61 63 61 63 57 52 49 47 49 42 56 65 68 64 64 64
57 57 58 58 58 58 59 59 59 58 56 49 55 58 53 53 62 67 70 68 68 67 70 70 72 71 69 67 60 55 56 59 62 65 62 61 52 48 47 43 52 59 63 61 56 56 64
57 57 57 58 58 58 59 59 59 58 57 51 55 58 56 53 59 68 66 65 59 58 63 67 71 69 70 57 55 47 48 54 56 60 59 57 56 54 45 44 43 52 66 68 63 48 64
56 56 57 57 58 58 59 59 59 59 57 52 53 59 56 52 58 61 61 60 63 59 57 60 67 66 65 53 51 49 51 59 53 52 51 51 50 49 46 45 49 61 66 67 48 49 60
56 56 56 57 58 58 59 59 59 59 58 55 54 58 58 51 55 65 68 62 63 58 55 60 60 61 56 52 51 51 51 55 52 54 51 51 48 47 46 43 43 64 63 53 56 57 61
56 56 57 57 58 58 58 59 58 58 58 56 51 61 62 54 58 65 70 71 71 69 61 58 59 57 58 53 51 51 52 52 47 47 55 50 52 50 51 50 58 60 59 60 61 60 58

GFSGBSN_sfc_temp_219.txt.gz
Temp
62 62 62 62 61 61 61 61 61 61 60 61 60 60 60 60 60 60 61 61 61 61 61 62 63 64 64 65 75 91 85 84 84 85 83 82 77 75 71 75 80 77 80 84 85 84 83
62 62 62 62 61 61 61 61 61 60 60 60 60 60 60 60 60 61 61 60 60 60 61 63 64 65 62 63 87 89 86 84 86 83 82 81 79 80 75 75 75 80 82 83 84 83 84
62 62 62 61 61 61 61 60 61 60 60 60 60 60 60 60 60 60 60 60 60 60 62 63 65 67 62 73 85 84 82 80 81 84 81 86 83 77 76 74 80 82 77 79 79 81 80
62 61 61 61 61 60 60 60 60 60 59 60 60 60 60 60 60 59 59 59 59 61 62 64 66 60 62 80 81 84 80 84 85 83 85 88 84 77 74 79 79 75 73 65 77 80 80
61 61 61 61 61 60 60 60 60 60 59 60 59 60 60 59 59 59 58 58 60 62 64 65 56 57 65 83 80 84 84 83 83 81 84 96 83 72 75 68 64 66 61 65 72 80 78
61 61 61 61 61 60 60 59 59 59 59 59 59 59 59 59 59 57 57 58 60 61 65 70 72 60 71 78 80 84 82 85 81 80 82 80 70 66 63 62 55 61 62 69 67 76 76
61 61 61 61 60 60 59 59 59 59 59 59 59 59 58 58 58 57 53 57 62 59 59 66 66 70 78 83 84 80 84 82 79 77 66 69 65 61 64 65 67 67 64 64 72 78 74
61 61 61 60 60 60 59 59 59 59 59 59 59 58 58 58 57 56 50 59 66 68 62 71 73 73 77 78 77 81 84 75 72 66 67 65 61 71 71 69 68 65 63 65 72 77 72
61 60 60 60 59 59 59 59 59 59 59 59 58 58 58 57 56 51 51 62 70 71 58 71 70 72 76 79 78 80 84 75 70 65 65 62 70 77 73 69 68 63 63 65 67 71 71
60 60 59 59 59 59 59 59 59 59 59 58 58 58 57 56 52 54 59 65 69 71 55 66 67 78 79 80 74 87 85 80 71 69 67 65 73 75 70 68 67 53 72 73 71 64 58
60 60 60 59 59 59 59 58 59 59 58 58 58 57 56 55 48 57 68 63 63 69 49 72 70 83 75 76 74 79 83 79 71 71 67 67 70 69 67 72 73 70 73 70 69 60 55
60 60 60 59 59 59 58 58 59 58 58 57 57 56 56 52 49 56 61 62 68 58 52 68 75 73 71 69 75 77 79 80 78 71 67 70 76 73 73 77 75 75 69 63 58 55 51
60 60 60 59 59 59 58 58 58 58 57 57 54 54 54 59 62 61 62 67 55 51 70 68 67 70 66 67 70 73 72 69 65 57 56 68 70 72 77 67 73 68 58 50 51 48 50
60 60 59 59 59 59 59 58 58 58 57 55 53 53 52 56 54 58 66 62 47 65 63 70 68 68 67 69 68 70 68 64 67 64 57 56 58 69 75 72 66 61 60 51 45 46 51
60 59 59 59 59 58 59 58 58 57 56 54 52 47 48 55 56 56 64 51 57 62 70 68 70 64 62 67 68 68 63 64 69 68 60 54 60 75 76 73 72 61 57 60 53 46 50
59 59 59 59 58 58 59 58 57 57 56 53 50 51 58 62 64 64 59 50 58 70 73 70 63 66 61 63 64 64 64 70 71 72 66 62 57 65 75 77 74 62 67 56 53 46 43
59 59 59 59 58 58 59 58 57 57 55 53 54 60 67 64 67 62 53 53 65 75 77 70 66 64 64 65 65 63 63 72 75 72 70 62 61 65 67 63 60 63 59 55 55 51 47
59 59 59 59 58 58 59 58 57 56 54 52 57 60 67 67 60 49 53 59 65 72 75 75 70 68 66 68 65 64 66 67 76 70 64 61 57 55 58 68 68 65 58 53 51 50 46
58 58 58 58 58 59 59 58 57 55 54 48 59 58 70 70 53 52 57 66 71 70 71 71 70 70 69 64 62 69 70 74 74 70 63 62 53 50 57 60 64 61 61 57 52 49 48
58 58 58 58 58 59 58 58 56 55 54 53 61 59 62 62 55 55 55 62 65 76 73 73 70 71 68 64 62 65 68 72 74 71 68 64 50 52 48 52 56 57 62 59 53 48 47
58 58 58 58 58 59 58 58 57 55 54 52 57 55 57 56 60 57 58 62 65 65 72 70 68 67 65 58 61 61 67 66 72 69 65 61 53 49 53 58 58 59 61 62 55 53 53
58 58 58 58 58 58 59 58 57 56 54 57 53 55 56 55 56 54 51 58 65 66 66 65 64 67 65 59 59 58 62 58 59 65 59 57 52 49 50 58 57 57 60 61 59 58 55
58 58 58 58 58 58 59 58 58 56 54 56 55 56 57 55 57 55 57 62 68 68 72 71 69 64 65 65 65 63 64 64 60 62 59 56 52 48 44 52 55 50 56 57 57 58 57
57 57 57 58 58 58 59 59 58 57 55 48 52 53 54 56 58 61 66 69 68 66 67 68 67 63 68 68 66 64 59 57 61 62 59 53 49 46 45 46 40 53 60 64 60 61 61
57 57 56 57 58 58 59 59 59 57 56 49 51 54 52 52 59 64 66 64 64 63 65 67 71 68 66 63 58 54 53 57 58 58 55 56 49 45 45 42 48 55 59 58 54 53 60
56 57 57 57 58 58 59 59 59 58 56 50 50 53 52 52 57 64 62 61 56 56 61 65 69 66 64 54 53 44 47 50 54 55 52 53 52 52 42 43 42 52 62 65 61 46 60
56 56 56 57 58 58 58 59 59 59 57 54 51 53 53 50 55 56 58 57 60 56 55 56 62 62 59 50 49 47 49 55 50 48 47 48 47 47 43 43 48 59 64 65 47 49 60
56 56 56 57 57 58 58 58 58 58 57 55 52 54 54 48 53 60 64 59 60 56 54 58 59 59 54 50 49 48 48 51 48 49 47 49 46 45 43 41 42 61 61 52 55 54 59
55 56 56 57 57 57 58 58 58 57 57 56 50 56 56 51 56 59 66 69 68 66 59 53 56 54 55 50 48 48 50 48 44 46 52 49 51 49 49 48 54 55 57 57 58 58 57

GFSGBSN_sfc_temp_222.txt.gz
Temp
62 62 62 62 61 61 61 61 61 60 60 60 60 60 60 60 60 60 61 61 61 61 61 62 64 64 63 65 74 85 83 83 83 83 81 80 77 72 69 71 75 75 77 80 82 81 79
62 62 62 62 61 61 61 61 61 60 60 60 60 60 60 60 60 60 60 60 60 60 61 62 64 65 61 62 82 84 84 83 83 82 80 78 77 76 72 73 72 78 78 81 81 79 80
62 62 62 61 61 61 60 60 60 60 60 60 60 60 60 60 60 60 59 59 60 60 61 63 65 66 60 72 81 80 79 78 80 82 79 81 80 76 74 73 77 77 74 76 77 78 77
61 61 61 61 61 60 60 60 60 60 59 60 60 60 60 59 60 59 58 58 59 61 62 64 65 59 62 78 78 81 78 81 81 80 81 83 80 75 71 76 76 72 71 64 74 76 77
62 61 61 61 61 60 60 60 60 59 59 59 59 59 59 59 59 58 58 58 60 62 64 64 55 56 64 81 77 80 81 79 79 79 80 92 79 70 73 66 63 65 59 63 69 76 75
61 61 61 61 60 60 60 59 60 59 59 59 59 59 59 58 58 58 57 58 60 61 63 68 71 59 70 74 77 79 76 82 79 78 80 77 68 65 62 62 55 58 60 65 63 72 72
61 61 61 60 60 60 59 59 59 59 59 59 59 58 58 58 58 57 53 56 60 57 56 64 64 68 74 79 80 77 81 81 77 75 63 67 64 59 63 63 64 63 62 62 66 74 71
61 61 60 60 59 60 59 59 59 59 59 59 59 58 58 58 57 57 49 57 62 63 60 67 69 70 74 74 72 76 81 73 70 63 64 64 59 68 69 68 65 61 60 62 69 73 70
61 60 60 60 60 59 59 59 59 59 59 59 58 58 57 57 56 51 50 61 65 65 57 67 67 69 72 75 73 74 79 73 67 64 62 60 66 73 70 66 64 58 58 62 66 68 69
60 60 60 60 59 59 59 58 59 59 59 59 58 58 57 56 51 52 57 62 63 65 54 62 64 75 74 74 71 83 81 77 68 65 66 63 69 70 65 65 64 51 69 70 68 61 56
60 60 60 59 59 59 59 58 58 59 58 58 58 57 55 55 47 55 64 60 60 66 47 69 68 78 71 73 71 74 79 77 67 66 65 65 66 65 65 67 67 67 70 66 66 59 54
60 60 60 59 59 59 58 58 58 58 58 58 57 56 56 51 49 55 58 59 65 57 50 65 71 69 68 67 71 73 75 78 74 68 64 67 71 69 70 72 72 71 65 61 56 53 49
60 60 60 59 59 58 58 58 58 58 57 56 55 54 54 57 60 57 57 64 55 49 66 65 64 66 64 64 67 68 69 65 63 55 54 65 67 69 72 64 68 63 57 49 49 47 48
60 59 59 59 58 58 58 58 58 58 56 55 53 53 51 54 52 55 63 61 45 63 61 67 66 65 64 66 64 66 65 62 63 62 55 55 58 65 71 69 64 58 56 51 44 44 49
59 59 59 59 58 58 58 58 58 57 56 54 51 47 47 52 54 53 63 50 55 60 66 66 65 62 59 63 65 63 63 63 67 67 60 53 58 71 71 70 71 59 55 58 49 44 48
58 58 59 58 58 58 58 58 58 57 56 53 48 50 56 58 59 62 59 50 56 66 70 67 60 63 59 61 62 60 60 67 67 69 63 60 55 63 72 72 70 62 64 55 51 45 42
58 58 58 58 58 58 58 58 58 56 55 53 51 59 63 58 60 62 53 53 62 70 72 67 62 60 60 61 62 61 64 67 71 67 67 58 57 63 66 61 57 62 57 53 52 48 46
58 58 58 58 58 58 58 58 57 55 53 51 55 56 63 62 59 46 52 56 62 68 71 69 67 64 64 65 61 60 63 64 71 69 63 57 56 52 55 63 63 60 55 52 51 48 44
59 58 58 58 58 58 58 58 56 55 54 49 57 56 64 65 53 51 54 62 65 68 67 68 66 68 65 61 59 63 65 70 70 68 62 62 54 49 54 60 62 58 57 53 49 47 46
58 58 58 58 58 58 58 57 56 55 54 50 58 56 59 58 52 52 52 58 61 72 68 67 67 69 64 60 61 61 64 71 70 67 67 64 49 52 49 51 54 55 59 56 51 48 46
58 58 58 58 58 58 58 58 57 56 55 52 55 53 54 54 56 53 53 58 62 62 67 68 67 66 63 55 58 59 65 66 70 68 63 60 53 48 49 56 55 56 56 57 53 52 53
57 57 57 57 58 58 58 58 57 56 54 54 51 55 53 52 53 53 49 55 60 62 62 62 63 65 62 58 58 59 62 59 60 64 57 56 51 48 49 56 55 55 57 57 55 55 52
57 57 57 57 58 58 58 58 57 56 54 54 52 53 55 52 52 53 55 60 65 64 69 68 67 63 63 62 64 61 61 62 59 62 57 55 51 48 46 51 53 49 53 54 54 56 55
57 57 57 57 58 58 58 58 58 56 55 50 50 50 53 55 56 57 62 64 64 62 64 66 66 62 64 65 64 62 61 58 57 55 56 51 48 45 44 45 39 51 58 60 56 57 58
56 57 57 57 58 58 58 58 58 57 56 50 49 51 51 51 55 60 63 62 62 62 63 65 67 63 62 62 57 54 53 56 55 53 51 53 47 42 45 41 47 56 58 58 54 53 59
56 56 57 56 57 58 58 58 58 58 56 49 49 50 51 52 55 60 59 59 56 54 59 61 64 61 62 53 53 45 47 48 51 51 47 50 49 51 41 42 41 51 60 62 59 48 60
56 56 56 57 57 58 58 58 58 58 57 54 50 51 52 50 54 54 56 56 57 54 54 53 59 60 57 49 47 46 48 52 48 46 45 46 45 46 42 43 48 56 61 62 48 50 58
56 56 56 56 56 57 57 58 58 58 58 54 50 52 52 48 52 57 62 57 58 55 54 56 57 57 52 49 48 46 46 48 46 47 45 48 45 43 42 40 44 58 60 53 55 54 59
56 56 56 56 56 56 57 57 57 57 57 56 48 53 52 50 55 55 61 64 64 63 57 51 55 52 54 49 46 46 47 46 43 45 48 48 49 47 47 47 53 55 55 56 58 57 58